Tiempo cada hora Ábrego

Hoy, 23 Octubre, Viernes

Tiempo Temperatura Precipitaciones Viento Presión Humedad
00:00 +19°C° 0.8 mm 1 mps 644 mmHg 92%
01:00 +19°C° 0.8 mm 1 mps 644 mmHg 92%
02:00 +19°C° 0.3 mm 1 mps 644 mmHg 91%
03:00 +19°C° 0.3 mm 1 mps 644 mmHg 90%
04:00 +19°C° 0.3 mm 1 mps 643 mmHg 89%
05:00 +20°C° 0.1 mm 1 mps 644 mmHg 87%
06:00 +20°C° 0.1 mm 1 mps 645 mmHg 86%
07:00 +21°C° 0.1 mm 1 mps 645 mmHg 85%
08:00 +22°C° 0 mm 1 mps 646 mmHg 79%
09:00 +24°C° 0 mm 1 mps 646 mmHg 74%
10:00 +25°C° 0 mm 2 mps 647 mmHg 69%
11:00 +26°C° 0.4 mm 2 mps 646 mmHg 70%
12:00 +26°C° 0.4 mm 2 mps 645 mmHg 71%
13:00 +26°C° 0.4 mm 1 mps 644 mmHg 72%
14:00 +26°C° 0.8 mm 1 mps 644 mmHg 75%
15:00 +25°C° 0.8 mm 1 mps 643 mmHg 78%
16:00 +25°C° 0.8 mm 1 mps 643 mmHg 81%
17:00 +23°C° 1.4 mm 1 mps 643 mmHg 85%
18:00 +22°C° 1.4 mm 1 mps 643 mmHg 88%
19:00 +20°C° 1.4 mm 1 mps 643 mmHg 92%
20:00 +20°C° 0.9 mm 1 mps 644 mmHg 92%
21:00 +20°C° 0.9 mm 1 mps 644 mmHg 92%
22:00 +20°C° 0.9 mm 1 mps 645 mmHg 91%
23:00 +19°C° 0.8 mm 1 mps 644 mmHg 91%

Mañana, 24 Octubre, Sábado

Tiempo Temperatura Precipitaciones Viento Presión Humedad
00:00 +19°C° 0.8 mm 1 mps 644 mmHg 91%
01:00 +19°C° 0.8 mm 1 mps 644 mmHg 91%
02:00 +19°C° 0.4 mm 1 mps 644 mmHg 90%
03:00 +19°C° 0.4 mm 1 mps 644 mmHg 89%
04:00 +19°C° 0.4 mm 1 mps 644 mmHg 89%
05:00 +17°C° 0.1 mm 0 mps 644 mmHg 87%
06:00 +18°C° 0.1 mm 0 mps 645 mmHg 86%
07:00 +19°C° 0.1 mm 0 mps 645 mmHg 85%
08:00 +22°C° 0.1 mm 1 mps 645 mmHg 82%
09:00 +23°C° 0.1 mm 1 mps 646 mmHg 80%
10:00 +24°C° 0.1 mm 2 mps 646 mmHg 77%
11:00 +24°C° 0.9 mm 1 mps 645 mmHg 79%
12:00 +24°C° 0.9 mm 1 mps 645 mmHg 82%
13:00 +24°C° 0.9 mm 1 mps 644 mmHg 84%
14:00 +24°C° 1.3 mm 1 mps 643 mmHg 86%
15:00 +23°C° 1.3 mm 1 mps 643 mmHg 87%
16:00 +21°C° 1.3 mm 0 mps 643 mmHg 88%
17:00 +22°C° 1.7 mm 1 mps 643 mmHg 90%
18:00 +21°C° 1.7 mm 1 mps 643 mmHg 92%
19:00 +20°C° 1.7 mm 1 mps 643 mmHg 94%
20:00 +20°C° 1.7 mm 1 mps 643 mmHg 93%
21:00 +20°C° 1.7 mm 1 mps 644 mmHg 93%
22:00 +20°C° 1.7 mm 1 mps 644 mmHg 93%
23:00 +20°C° 3.2 mm 1 mps 644 mmHg 95%

Pasado mañana, 25 Octubre, Domingo

Tiempo Temperatura Precipitaciones Viento Presión Humedad
00:00 +19°C° 3.2 mm 1 mps 644 mmHg 96%
01:00 +19°C° 3.2 mm 1 mps 644 mmHg 97%
02:00 +19°C° 5.9 mm 1 mps 644 mmHg 97%
03:00 +19°C° 5.9 mm 1 mps 644 mmHg 98%
04:00 +19°C° 5.9 mm 1 mps 644 mmHg 98%
05:00 +19°C° 1.5 mm 1 mps 644 mmHg 97%
06:00 +17°C° 1.5 mm 0 mps 645 mmHg 97%
07:00 +17°C° 1.5 mm 0 mps 645 mmHg 96%
08:00 +17°C° 1.8 mm 0 mps 646 mmHg 97%
09:00 +17°C° 1.8 mm 0 mps 646 mmHg 97%
10:00 +17°C° 1.8 mm 0 mps 646 mmHg 97%
11:00 +20°C° 1.3 mm 1 mps 646 mmHg 96%
12:00 +20°C° 1.3 mm 1 mps 645 mmHg 96%
13:00 +21°C° 1.3 mm 1 mps 645 mmHg 95%
14:00 +21°C° 0.5 mm 1 mps 644 mmHg 94%
15:00 +21°C° 0.5 mm 1 mps 644 mmHg 93%
16:00 +19°C° 0.5 mm 0 mps 644 mmHg 92%
17:00 +18°C° 0.1 mm 0 mps 644 mmHg 92%
18:00 +18°C° 0.1 mm 0 mps 644 mmHg 93%
19:00 +17°C° 0.1 mm 0 mps 644 mmHg 93%
20:00 +19°C° 0 mm 1 mps 644 mmHg 93%
21:00 +19°C° 0 mm 1 mps 645 mmHg 92%
22:00 +19°C° 0 mm 1 mps 645 mmHg 91%
23:00 +18°C° 0 mm 1 mps 644 mmHg 91%

, 26 Octubre, Lunes

Tiempo Temperatura Precipitaciones Viento Presión Humedad
00:00 +18°C° 0 mm 1 mps 644 mmHg 91%
01:00 +18°C° 0 mm 1 mps 644 mmHg 91%
02:00 +18°C° 0 mm 1 mps 644 mmHg 91%
03:00 +18°C° 0 mm 1 mps 644 mmHg 91%
04:00 +18°C° 0 mm 1 mps 644 mmHg 90%
05:00 +18°C° 0 mm 1 mps 644 mmHg 89%
06:00 +19°C° 0 mm 1 mps 645 mmHg 88%
07:00 +20°C° 0 mm 1 mps 645 mmHg 87%
08:00 +21°C° 0.1 mm 1 mps 646 mmHg 83%
09:00 +23°C° 0.1 mm 1 mps 646 mmHg 79%
10:00 +24°C° 0.1 mm 2 mps 647 mmHg 76%
11:00 +24°C° 0.8 mm 2 mps 646 mmHg 78%
12:00 +24°C° 0.8 mm 2 mps 645 mmHg 81%
13:00 +24°C° 0.8 mm 1 mps 644 mmHg 83%
14:00 +24°C° 0.8 mm 1 mps 644 mmHg 85%
15:00 +24°C° 0.8 mm 2 mps 643 mmHg 86%
16:00 +23°C° 0.8 mm 2 mps 643 mmHg 88%
17:00 +22°C° 0.3 mm 1 mps 643 mmHg 90%
18:00 +21°C° 0.3 mm 1 mps 643 mmHg 92%
19:00 +20°C° 0.3 mm 1 mps 643 mmHg 94%
20:00 +19°C° 0 mm 1 mps 643 mmHg 94%
21:00 +19°C° 0 mm 1 mps 644 mmHg 94%
22:00 +19°C° 0 mm 1 mps 644 mmHg 93%
23:00 +19°C° 0.1 mm 1 mps 644 mmHg 93%

26 Octubre, Lunes

Tiempo Temperatura Precipitaciones Viento Presión Humedad
00:00 +18°C° 0 mm 1 mps 644 mmHg 91%
01:00 +18°C° 0 mm 1 mps 644 mmHg 91%
02:00 +18°C° 0 mm 1 mps 644 mmHg 91%
03:00 +18°C° 0 mm 1 mps 644 mmHg 91%
04:00 +18°C° 0 mm 1 mps 644 mmHg 90%
05:00 +18°C° 0 mm 1 mps 644 mmHg 89%
06:00 +19°C° 0 mm 1 mps 645 mmHg 88%
07:00 +20°C° 0 mm 1 mps 645 mmHg 87%
08:00 +21°C° 0.1 mm 1 mps 646 mmHg 83%
09:00 +23°C° 0.1 mm 1 mps 646 mmHg 79%
10:00 +24°C° 0.1 mm 2 mps 647 mmHg 76%
11:00 +24°C° 0.8 mm 2 mps 646 mmHg 78%
12:00 +24°C° 0.8 mm 2 mps 645 mmHg 81%
13:00 +24°C° 0.8 mm 1 mps 644 mmHg 83%
14:00 +24°C° 0.8 mm 1 mps 644 mmHg 85%
15:00 +24°C° 0.8 mm 2 mps 643 mmHg 86%
16:00 +23°C° 0.8 mm 2 mps 643 mmHg 88%
17:00 +22°C° 0.3 mm 1 mps 643 mmHg 90%
18:00 +21°C° 0.3 mm 1 mps 643 mmHg 92%
19:00 +20°C° 0.3 mm 1 mps 643 mmHg 94%
20:00 +19°C° 0 mm 1 mps 643 mmHg 94%
21:00 +19°C° 0 mm 1 mps 644 mmHg 94%
22:00 +19°C° 0 mm 1 mps 644 mmHg 93%
23:00 +19°C° 0.1 mm 1 mps 644 mmHg 93%

27 Octubre, Martes

Tiempo Temperatura Precipitaciones Viento Presión Humedad
00:00 +19°C° 0.1 mm 1 mps 643 mmHg 93%
01:00 +19°C° 0.1 mm 1 mps 643 mmHg 93%
02:00 +18°C° 0.1 mm 1 mps 643 mmHg 93%
03:00 +18°C° 0.1 mm 1 mps 643 mmHg 92%
04:00 +18°C° 0.1 mm 1 mps 642 mmHg 92%
05:00 +19°C° 0 mm 1 mps 643 mmHg 91%
06:00 +19°C° 0 mm 1 mps 644 mmHg 91%
07:00 +20°C° 0 mm 1 mps 644 mmHg 90%
08:00 +21°C° 0.1 mm 1 mps 645 mmHg 85%
09:00 +23°C° 0.1 mm 1 mps 645 mmHg 81%
10:00 +24°C° 0.1 mm 2 mps 646 mmHg 76%
11:00 +24°C° 0.8 mm 1 mps 645 mmHg 78%
12:00 +24°C° 0.8 mm 1 mps 644 mmHg 80%
13:00 +24°C° 0.8 mm 1 mps 643 mmHg 81%
14:00 +24°C° 0.9 mm 1 mps 643 mmHg 84%
15:00 +24°C° 0.9 mm 1 mps 642 mmHg 86%
16:00 +23°C° 0.9 mm 1 mps 642 mmHg 88%
17:00 +22°C° 0.8 mm 1 mps 642 mmHg 91%
18:00 +21°C° 0.8 mm 1 mps 642 mmHg 93%
19:00 +20°C° 0.8 mm 1 mps 643 mmHg 95%
20:00 +20°C° 0.5 mm 1 mps 643 mmHg 95%
21:00 +19°C° 0.5 mm 1 mps 643 mmHg 94%
22:00 +19°C° 0.5 mm 1 mps 643 mmHg 94%
23:00 +19°C° 0.2 mm 1 mps 643 mmHg 94%

28 Octubre, Miércoles

Tiempo Temperatura Precipitaciones Viento Presión Humedad
00:00 +19°C° 0.2 mm 1 mps 643 mmHg 93%
01:00 +18°C° 0.2 mm 1 mps 642 mmHg 93%
02:00 +18°C° 0.1 mm 1 mps 642 mmHg 93%
03:00 +18°C° 0.1 mm 1 mps 642 mmHg 92%
04:00 +18°C° 0.1 mm 1 mps 642 mmHg 92%
05:00 +19°C° 0 mm 1 mps 642 mmHg 91%
06:00 +19°C° 0 mm 1 mps 643 mmHg 90%
07:00 +20°C° 0 mm 1 mps 644 mmHg 88%
08:00 +21°C° 0.1 mm 1 mps 644 mmHg 83%
09:00 +23°C° 0.1 mm 1 mps 645 mmHg 78%
10:00 +24°C° 0.1 mm 1 mps 645 mmHg 73%
11:00 +24°C° 0.8 mm 1 mps 644 mmHg 75%
12:00 +24°C° 0.8 mm 1 mps 644 mmHg 76%
13:00 +24°C° 0.8 mm 1 mps 643 mmHg 78%
14:00 +24°C° 1.2 mm 1 mps 643 mmHg 82%
15:00 +23°C° 1.2 mm 1 mps 642 mmHg 86%
16:00 +23°C° 1.2 mm 1 mps 642 mmHg 90%
17:00 +22°C° 1.8 mm 1 mps 642 mmHg 92%
18:00 +19°C° 1.8 mm 0 mps 642 mmHg 93%
19:00 +18°C° 1.8 mm 0 mps 642 mmHg 95%
20:00 +18°C° 2.2 mm 0 mps 643 mmHg 95%
21:00 +20°C° 2.2 mm 1 mps 643 mmHg 94%
22:00 +19°C° 2.2 mm 1 mps 643 mmHg 94%
23:00 +17°C° 1.5 mm 0 mps 643 mmHg 94%
Mostrar más

Necesitamos Su Consentimiento

Meteoprog y nuestros Proveedores de Servicios pueden almacenar y acceder a sus datos personales como cookies, identificadores de dispositivo u otras tecnologías similares de su dispositivo y procesar dichos datos para personalizar contenido y anuncios, además de ofrecer funciones de redes sociales y analizar el tráfico.

  • Almacenar y/o acceder a información en su dispositivo

    Se puede almacenar o acceder a cookies, identificadores de dispositivo u otra información de su dispositivo para los fines anteriormente indicados.

  • Anuncios y contenido personalizados, medición de anuncios y contenido, percepciones del público, y desarrollo de productos

    Los anuncios y el contenido pueden personalizarse en base a su perfil. Se pueden añadir más datos para personalizar mejor los anuncios y contenidos. Se puede medir el rendimiento de los anuncios y contenidos. Se puede obtener la percepción sobre el público que ha visto los anuncios y contenidos. Dichos datos pueden usarse para desarrollar o mejorar la experiencia del usuario, sistemas y software.

Al hacer clic en ‘Estoy De Acuerdo’ usted permitirá el uso de las cookies, identificadores de dispositivo, balizas web u otras tecnologías similares indicadas. Su configuración puede cambiarse desde el navegador de su dispositivo.

Para ciertos fines, los intereses legítimos pueden ser considerados por encima del consentimiento. Puede leer más sobre ello en nuestra Política de Privacidad y Cookies.